Regional Weather Roundup
Issued by NWS Green Bay, WI

Home | Current Version | Previous Version | Graphics & Text | Print | Product List | Glossary Off
Versions: 1 2 3 4 5 6 7 8 9 10 11 12 13 14 15 16 17 18 19 20 21 22 23 24 25 26 27 28 29 30 31 32 33 34 35 36 37 38 39 40 41 42 43 44 45 46 47 48 49 50

000
ASUS43 KGRB 280810
RWRGRB

NORTH-CENTRAL AND NORTHEAST WISCONSIN REGIONAL WEATHER ROUNDUP
NATIONAL WEATHER SERVICE GREEN BAY WI
200 AM CST SAT FEB 28 2015

WIZ005-009-010>012-018-019-280900-
NORTH CENTRAL WISCONSIN

CITY           SKY/WX    TMP DP  RH WIND       PRES   REMARKS
IRONWOOD       CLEAR      3  -4  72 SW9       30.42S WCI -11
MANITOWISH WTR CLEAR    -11 -17  77 S3        30.43S
ARBOR VITAE    CLEAR     -6 -12  77 CALM      30.44R
EAGLE RIVER    CLEAR     -6 -11  78 CALM      30.43S
LAND O LAKES   CLEAR    -17 -22  76 SW5       30.43R WCI -29
RHINELANDER    CLEAR     -5  -9  83 W5        30.45R WCI -16
PHILLIPS       CLEAR     -9 -12  84 CALM      30.46R
ANTIGO         CLEAR     -4  -8  82 W5        30.48R WCI -15
TOMAHAWK       CLEAR    -14 -19  76 CALM      30.48S
MERRILL        CLEAR    -14 -20  76 CALM      30.50R
$$

WIZ013-073-280900-
NORTHEAST WISCONSIN

CITY           SKY/WX    TMP DP  RH WIND       PRES   REMARKS
IRON MOUNTAIN  CLEAR     -5 -11  75 CALM      30.46R
MARINETTE      CLEAR      5  -6  61 W5        30.55R WCI  -4
OCONTO         CLEAR      3  -6  65 SW6       30.57R WCI  -8
$$

WIZ017-030-035>037-045-280900-
CENTRAL WISCONSIN

CITY           SKY/WX    TMP DP  RH WIND       PRES   REMARKS
MEDFORD        PTCLDY    -3  -7  82 SW5       30.48S WCI -14
WAUSAU         CLEAR      0  -7  72 CALM      30.51R
MOSINEE        CLEAR      0  -8  71 W6        30.53R WCI -12
MARSHFIELD     PTCLDY    -3  -9  75 SW6       30.53R WCI -15
WISC RAPIDS    CLEAR     -2 -10  69 SW7       30.58R WCI -15
STEVENS POINT  CLEAR      0  -8  68 SW6       30.55S WCI -11
WAUPACA        CLEAR      3  -7  62 SW7       30.59R WCI  -9
SHAWANO        CLEAR      3  -6  65 CALM      30.57R
CLINTONVILLE   CLEAR      3  -8  60 W5        30.57R WCI  -6
$$

WIZ038-039-048-051-280900-
FOX VALLEY

CITY           SKY/WX    TMP DP  RH WIND       PRES   REMARKS
NWS GREEN BAY  CLEAR      4  -4  69 SW6       30.59R WCI  -7
APPLETON       CLEAR      3  -6  66 SW8       30.57S WCI -10
OSHKOSH        CLEAR      3  -6  66 W3        30.59R
FOND DU LAC    CLEAR      1  -7  68 SW5       30.60S WCI  -9
$$

WIZ022-050-052-280900-
EAST CENTRAL WISCONSIN

CITY           SKY/WX    TMP DP  RH WIND       PRES   REMARKS
STURGEON BAY   CLEAR      7  -6  56 SW7       30.58R WCI  -5
MANITOWOC      CLEAR      6  -3  66 W8        30.60R WCI  -7
SHEBOYGAN      CLEAR      2  -7  66 SW8       30.61R WCI -12
$$

LMZ563-521-522-541>543-280900-
LAKESHORE

STATION/POSITION TIME  TEMP    WIND        PRES    VSBY  WAVE
                       AIR SEA DIR/SP/G                  HT/PER
                 (UTC) (F)     (DEG/KT/KT) (MB)    (MI)  (FT/S)
SHEBOYGAN LKSHOR 0800    7     250/ 13/ 15 1038.4R
KEWAUNEE LKSHORE 0800    6     290/  6/ 10 1034.6S
NORTHPORT PIER   0800    9     240/  5/ 10 1034.2S
SISTER BAY LKSHO 0800    9     250/ 11/ 15   N/A
CHAMBERS ISLAND  0800    7     200/  7/ 11 1034.5R
MENOMINEE LKSHOR 0800    7     210/  8     1035.3R
$$



USA.gov is the U.S. government's official web portal to all federal, state and local government web resources and services.